FENGYUN 1C DEB

Satellite information

Favourite Embed

Satellite Type and Status

DEBRISIN ORBIT

Key statistics

Satellite FENGYUN 1C DEB at a glance.

Uptime

9715

Days in orbit

Revolutions

≈ 13.8

Per day

Orbit

SSO

Sun Synchronous Orbit

Inclination

99.8

Latest

Satellite identification and parameters

Extended collection of information and parameters for FENGYUN 1C DEB.

Object identification

Identified? True

Debris? True

Object name: FENGYUN 1C DEB

International designator: 1999-025DMG

Object number (NORAD): 35152

Object ID (CCSDS): 35152

Country: PEOPLES REPUBLIC OF CHINA (PRC)

Current information (Y/N): Y

RCS size: SMALL

Orbital parameters

Period: 104.619 minutes

Inclination: 99.8191 deg

SMA: 7354.727 km

Apoapsis: 1119.87 km

Periapsis: 833.315 km

RAAN: 165.8523 deg

Eccentricy: 0.019481

Argument of periapsis: 24.4192 deg

Mean anomaly: 336.6036 deg

Mean motion: 13.76426124 rev/day

Mean motion (dot): 0.0000095 rev/day2

B* drag term: 0.0008876 1/REarth

Two-line elements (TLE)

Creation date: Dec. 9, 2025, 3:06 p.m.

Reference frame: TEME

Reference center: EARTH

Epoch: Dec. 9, 2025, 6:32 a.m. UTC

TLE line 0: 0 FENGYUN 1C DEB

TLE line 1: 1 35152U 99025DMG 25343.27280981 .00000950 00000-0 88760-3 0 9991

TLE line 2: 2 35152 99.8191 165.8523 0194810 24.4192 336.6036 13.76426124621451

Live tracking on map

Real-time ground track for satellite FENGYUN 1C DEB.

In-orbit conjunctions

A list of the most updated potential collisions computed for object FENGYUN 1C DEB.

Target Orbit TCA Probability of collision Miss distance Type
CZ-6A DEB SSO 2025-10-23 08:20:37 0.0001260366 68.0 (m) DEBRIS
COSMOS 970 DEB LEO 2025-08-29 12:16:26 0.00011247 162.0 (m) DEBRIS
SL-16 R/B LEO 2025-06-09 19:53:52 0.0001566715 129.0 (m) ROCKET BODY

Associated space launch

Chinese polar orbiting meteorological satellite

FENGYUN 1C DEB was lifted into orbit during the mission ‘Long March 4B | Feng Yun 1C’, on board a Long March 4B space rocket.

The launch took place on May 10, 1999, 1:33 a.m. from Launch Complex 7.

For more information about the launch, click the button.

Launch to space Long March 4B | Feng Yun 1C
Long March 4B | Feng Yun 1C

Agency: N/A

Status: Launch Successful

Launch date: May 10, 1999, 1:33 a.m. UTC

Rocket: Long March 4B

Launch pad: Launch Complex 7

Location: Taiyuan Satellite Launch Center, People's Republic of China

...

Latest news about this satellite

There are no fresh news available about this satellite. Check back as we update our databases every day.


Newsletter sign-up

Weekly statistics, charts and insights to help you stay on top of the space industry.